[Iaude] MPEC T109: 2016 TU19 [a=0.81,e=0.36,i=6.3,H=24.4]

mpec at si.edu mpec at si.edu
Tue Oct 11 10:15:44 EDT 2016


M.P.E.C. 2016-T109                               Issued 2016 Oct. 11, 14:11 UT
 
     The Minor Planet Electronic Circulars contain information on unusual
         minor planets and routine data on comets.  They are published
    on behalf of Division F of the International Astronomical Union by the
          Minor Planet Center, Smithsonian Astrophysical Observatory,
                          Cambridge, MA 02138, U.S.A.

             Prepared using the Tamkin Foundation Computer Network

                              MPC at CFA.HARVARD.EDU
            URL http://www.minorplanetcenter.net/    ISSN 1523-6714


                                   2016 TU19
 
Observations:
     K16T19U* C2016 10 08.48132 02 02 37.522-10 56 51.57         20.4 wLET109F51
     K16T19U  C2016 10 08.49377 02 02 31.391-10 57 56.83         20.3 wLET109F51
     K16T19U  C2016 10 08.50622 02 02 25.242-10 59 02.15         20.9 wLET109F51
     K16T19U  C2016 10 08.51867 02 02 19.140-11 00 07.16         20.8 wLET109F51
     K16T19U KC2016 10 09.25056 01 56 47.39 -12 03 38.1          19.7 RoET109291
     K16T19U KC2016 10 09.25176 01 56 46.80 -12 03 44.4          19.9 RoET109291
     K16T19U KC2016 10 09.25296 01 56 46.23 -12 03 50.5          20.0 RoET109291
     K16T19U  C2016 10 09.26346 01 56 41.07 -12 04 44.1          20.3 RoET109926
     K16T19U  C2016 10 09.26694 01 56 39.41 -12 05 02.6          20.6 RoET109926
     K16T19U  C2016 10 09.27043 01 56 37.63 -12 05 20.4          20.3 RoET109926
     K16T19U KC2016 10 09.30238201 56 18.76 -12 06 40.1          20.7 RqET109W85
     K16T19U KC2016 10 09.30438501 56 17.78 -12 06 50.4          20.8 RqET109W85
     K16T19U KC2016 10 09.30554601 56 17.23 -12 06 56.2          21.2 RqET109W85
     K16T19U KC2016 10 09.30604301 56 16.99 -12 06 58.8          20.8 RqET109W85
     K16T19U KC2016 10 09.30770101 56 16.16 -12 07 07.4          20.6 RqET109W85
     K16T19U KC2016 10 09.30820101 56 15.92 -12 07 09.9          20.4 RqET109W85
     K16T19U KC2016 10 09.30936401 56 15.36 -12 07 15.9          20.5 RqET109W85
     K16T19U KC2016 10 09.31102101 56 14.56 -12 07 24.3          20.8 RqET109W85
     K16T19U KC2016 10 09.31317801 56 13.51 -12 07 35.1          20.9 RqET109W85
     K16T19U _C2016 10 09.47200301 55 02.849-12 22 17.69         20.4 RUET109568
     K16T19U _C2016 10 09.47303901 55 02.336-12 22 22.95         20.4 RUET109568
     K16T19U _C2016 10 09.47424301 55 01.746-12 22 29.06         20.3 RUET109568
     K16T19U KC2016 10 10.27475901 48 55.47 -13 29 39.7          20.6 VuET109H21
     K16T19U KC2016 10 10.28158001 48 52.17 -13 30 13.6          20.6 VuET109H21
     K16T19U KC2016 10 10.28877801 48 48.66 -13 30 49.0          20.4 VuET109H21
     K16T19U |C2016 10 10.29431 01 48 44.48 -13 29 44.8          20.9 VuET109807
     K16T19U |C2016 10 10.29709 01 48 43.14 -13 29 58.3          20.8 VuET109807
     K16T19U |C2016 10 10.30026 01 48 41.61 -13 30 13.7          20.8 VuET109807
 
Observer details:
291 LPL/Spacewatch II.  Observer R. S. McMillan.  1.8-m f/2.7 reflector + CCD.
568 Mauna Kea.  Observers R. J. Wainscoat, R. Weryk, C. Wipper.  Measurers
    M. Micheli, R. Weryk.  3.6-m Canada-France-Hawaii Telescope + CCD.
807 Cerro Tololo.  Observers T. Linder, R. Holmes.  0.61-m f/6.5 astrograph
    + CCD.
926 Tenagra II Observatory.  Observers M. Schwartz, P. R. Holvorcem.  Measurer
    M. Schwartz.  0.81-m f/7 Ritchey-Chretien + CCD.
F51 Pan-STARRS 1, Haleakala.  Observers B. Gibson, T. Goggia, S. Kahale,
    A. Schultz, M. Willman.  Measurers K. Chambers, S. Chastel, L. Denneau,
    H. Flewelling, M. Huber, E. Lilly, E. Magnier, R. Wainscoat, C. Waters,
    R. Weryk.  1.8-m Ritchey-Chretien + CCD.
H21 Astronomical Research Observatory, Westfield.  Observer R. Holmes.
    Measurers S. Foglia, L. Buzzi, T. Linder, R. Holmes.  0.61-m f/4.5
    astrograph + CCD.
W85 Cerro Tololo-LCOGT A.  Observers T. Lister, S. Greenstreet, E. Gomez.
    Measurer T. Lister.  1.0-m f/8 Ritchey-Chretien + CCD.
 
Orbital elements:
2016 TU19                                                Earth MOID = 0.0145 AU
Epoch 2016 July 31.0 TT = JDT 2457600.5                 MPC
M  73.37959              (2000.0)            P               Q
n   1.35035606     Peri.   25.44074     -0.92165205     +0.38798488
a   0.8106571      Node   177.37293     -0.37209537     -0.88008832
e   0.3560220      Incl.    6.29169     -0.11001153     -0.27370110
P   0.73           H   24.4           G   0.15           U   8
Residuals in seconds of arc
161008 F51  0.1+  0.1-    161009 W85  0.1+  0.4+    161009 568  0.2+  0.1-
161008 F51  0.1+  0.0     161009 W85  0.0   0.2+    161009 568  0.2+  0.1-
161008 F51  0.2-  0.1-    161009 W85  0.2+  0.3+    161010 H21  0.2+  0.1+
161008 F51  0.1+  0.0     161009 W85  0.2+  0.2+    161010 H21  0.3+  0.2-
161009 291  0.1-  0.0     161009 W85  0.1-  0.1+    161010 H21  0.0   0.2-
161009 291  0.2-  0.1-    161009 W85  0.1-  0.1+    161010 807  0.2-  0.1-
161009 291  0.1-  0.0     161009 W85  0.0   0.0     161010 807  0.1-  0.0
161009 926  0.3-  0.3+    161009 W85  0.1+  0.0     161010 807  0.0   0.0
161009 926  0.1+  0.2-    161009 W85  0.1+  0.1+
161009 926  1.0-  0.0     161009 568  0.2+  0.1-

Ephemeris:
2016 TU19                a,e,i = 0.81, 0.36, 6                   q = 0.5220
Date    TT    R. A. (2000) Decl.     Delta      r     Elong.  Phase     V
2016 09 11    04 31 02.7 +22 33 32   0.1470  1.0397    98.9    73.0    22.9
...
2016 09 26    03 28 51.9 +07 47 24   0.1116  1.0782   130.4    45.1    21.5
...
2016 10 04    02 36 22.1 -04 04 58   0.1032  1.0908   149.8    27.5    20.9
...
2016 10 10    01 51 01.7 -13 05 48   0.1056  1.0965   156.8    21.0    20.7
2016 10 11    01 43 25.5 -14 27 09   0.1068  1.0971   156.6    21.2    20.8
2016 10 12    01 35 53.5 -15 44 49   0.1082  1.0977   156.0    21.7    20.8
...
2016 10 18    00 53 35.8 -22 03 08   0.1205  1.0992   147.0    29.6    21.3
...
2016 10 26    00 09 20.5 -26 45 36   0.1445  1.0964   132.2    42.2    22.0
...
2016 11 10    23 24 55.6 -28 58 06   0.1995  1.0760   110.3    59.6    23.2

A. U. Tomatic                (C) Copyright 2016 MPC           M.P.E.C. 2016-T109




More information about the Iaude mailing list